Weather History for Olive Branch, MS

Change the Weather History Date:

Saturday, November 30, 2013

  Actual Average (KMEM) Record (KMEM)
Temperature  
Mean Temperature 42 °F 48 °F  
Max Temperature 55 °F 57 °F 77 °F (1946)
Min Temperature 28 °F 39 °F 16 °F (1887)
Degree Days  
Heating Degree Days 24 18  
Month to date heating degree days 369  
Since 1 July heating degree days 499  
Cooling Degree Days 0 0  
Month to date cooling degree days 13  
Year to date cooling degree days 2256  
Moisture  
Dew Point 31 °F    
Average Humidity 74    
Maximum Humidity 100    
Minimum Humidity 36    
Precipitation  
Precipitation 0.00 in 0.21 in 4.48 in (1996)
Month to date precipitation 5.49  
Year to date precipitation 47.94  
Snow  
Snow 0.00 in 0.00 in T in (1974)
Month to date snowfall T  
Since 1 July snowfall T  
Since 1 September snowfall T  
Snow Depth -    
Sea Level Pressure  
Sea Level Pressure 30.34 in    
Wind  
Wind Speed 4 mph (South)    
Max Wind Speed 16 mph    
Max Gust Speed -    
Visibility 9 miles    
Events      
T = Trace of Precipitation, MM = Missing Value Source: NWS Daily Summary

Daily Weather History Graph

Daily Weather History Graph

Search for Another Location

Airport:

Trip Planner

Search our weather history database for the weather conditions in past years. The results will help you decide how hot, cold, wet, or windy it might be!

Date:

Astronomy

Nov. 30, 2013 Rise Set
Actual Time 6:48 AM CST 4:47 PM CST
Civil Twilight 6:20 AM CST 5:15 PM CST
Nautical Twilight 5:49 AM CST 5:46 PM CST
Astronomical Twilight 5:18 AM CST 6:17 PM CST
Moon 4:04 AM CST (11/30) 3:07 PM CST (11/30)
Length of Visible Light 10h 54m
Length of Day
9h 59m
Waning Crescent, 7% of the Moon is Illuminated
Nov 30
Waning Crescent
Dec 2
New
Dec 9
First Quarter
Dec 17
Full
Dec 25
Last Quarter

Hourly Weather History & Observations

Time (CST) Temp. Windchill Dew Point Humidity Pressure Visibility Wind Dir Wind Speed Gust Speed Precip Events Conditions
12:15 AM 35.6 °F - 32.0 °F 87% 30.44 in 10.0 mi Calm Calm - 0.00 in   Clear
12:35 AM 33.8 °F - 32.0 °F 93% 30.43 in 10.0 mi Calm Calm - 0.00 in   Clear
12:55 AM 35.6 °F 31.7 °F 32.0 °F 87% 30.42 in 10.0 mi SSE 4.6 mph - 0.00 in   Clear
1:15 AM 35.6 °F 31.7 °F 30.2 °F 81% 30.41 in 9.0 mi SSE 4.6 mph - 0.00 in   Clear
1:35 AM 33.8 °F - 32.0 °F 93% 30.41 in 10.0 mi Calm Calm - 0.00 in   Clear
1:55 AM 33.8 °F - 32.0 °F 93% 30.41 in 6.0 mi Calm Calm - 0.00 in   Clear
2:15 AM 33.8 °F 29.6 °F 32.0 °F 93% 30.40 in 7.0 mi SSE 4.6 mph - 0.00 in   Clear
2:35 AM 33.8 °F 30.8 °F 32.0 °F 93% 30.41 in 9.0 mi South 3.5 mph - 0.00 in   Clear
2:55 AM 33.8 °F - 30.2 °F 87% 30.41 in 9.0 mi Calm Calm - 0.00 in   Clear
3:15 AM 32.0 °F - 30.2 °F 93% 30.41 in 9.0 mi Calm Calm - 0.00 in   Clear
3:35 AM 33.8 °F - 30.2 °F 87% 30.42 in 10.0 mi Calm Calm - 0.00 in   Clear
3:55 AM 33.8 °F 30.8 °F 30.2 °F 87% 30.41 in 3.0 mi SSE 3.5 mph - 0.00 in   Clear
4:15 AM 32.0 °F - 30.2 °F 93% 30.41 in 4.0 mi Calm Calm - 0.00 in   Clear
4:35 AM 30.2 °F 26.7 °F 30.2 °F 100% 30.41 in 4.0 mi South 3.5 mph - 0.00 in   Clear
4:55 AM 32.0 °F - 30.2 °F 93% 30.41 in 4.0 mi Calm Calm - 0.00 in   Clear
5:15 AM 32.0 °F - 30.2 °F 93% 30.42 in 3.0 mi Calm Calm - 0.00 in   Clear
5:35 AM 32.0 °F - 30.2 °F 93% 30.42 in 10.0 mi Calm Calm - 0.00 in   Clear
6:50 AM 28.4 °F - 28.4 °F 100% 30.44 in 10.0 mi Calm Calm - N/A   Scattered Clouds
7:50 AM 32.0 °F - 32.0 °F 100% 30.44 in 10.0 mi Calm Calm - N/A   Scattered Clouds
8:50 AM 39.2 °F 33.6 °F 33.8 °F 81% 30.44 in 10.0 mi South 8.1 mph - N/A   Scattered Clouds
9:50 AM 44.6 °F 38.8 °F 30.2 °F 57% 30.44 in 10.0 mi South 11.5 mph - N/A   Mostly Cloudy
10:50 AM 48.2 °F - 32.0 °F 54% 30.42 in 10.0 mi South 11.5 mph - N/A   Mostly Cloudy
11:50 AM 53.6 °F - 30.2 °F 41% 30.38 in 10.0 mi South 10.4 mph - N/A   Mostly Cloudy
12:50 PM 55.4 °F - 32.0 °F 41% 30.33 in 10.0 mi SW 11.5 mph - N/A   Mostly Cloudy
1:50 PM 55.4 °F - 30.2 °F 38% 30.31 in 10.0 mi SSW 16.1 mph - N/A   Mostly Cloudy
2:50 PM 55.4 °F - 28.4 °F 36% 30.28 in 10.0 mi SSW 12.7 mph - N/A   Mostly Cloudy
3:50 PM 53.6 °F - 32.0 °F 44% 30.28 in 10.0 mi SSW 6.9 mph - N/A   Mostly Cloudy
4:50 PM 51.8 °F - 30.2 °F 44% 30.27 in 10.0 mi Calm Calm - N/A   Mostly Cloudy
5:50 PM 46.4 °F 43.5 °F 32.0 °F 57% 30.26 in 10.0 mi South 5.8 mph - N/A   Mostly Cloudy
6:50 PM 44.6 °F 41.4 °F 32.0 °F 61% 30.25 in 10.0 mi South 5.8 mph - N/A   Clear
7:50 PM 44.6 °F 40.7 °F 32.0 °F 61% 30.25 in 10.0 mi South 6.9 mph - N/A   Clear
7:55 PM 44.6 °F 40.7 °F 32.0 °F 61% 30.25 in 10.0 mi South 6.9 mph - 0.00 in   Clear
8:15 PM 44.6 °F 40.2 °F 32.0 °F 61% 30.26 in 10.0 mi South 8.1 mph - 0.00 in   Clear
8:35 PM 42.8 °F 38.6 °F 32.0 °F 66% 30.25 in 10.0 mi South 6.9 mph - 0.00 in   Clear
8:55 PM 42.8 °F 38.6 °F 32.0 °F 66% 30.25 in 10.0 mi South 6.9 mph - 0.00 in   Clear
9:15 PM 42.8 °F 38.6 °F 32.0 °F 66% 30.25 in 9.0 mi South 6.9 mph - 0.00 in   Clear
9:35 PM 42.8 °F 38.6 °F 32.0 °F 66% 30.25 in 10.0 mi South 6.9 mph - 0.00 in   Clear
9:55 PM 41.0 °F 36.4 °F 32.0 °F 70% 30.24 in 10.0 mi South 6.9 mph - 0.00 in   Clear
10:15 PM 41.0 °F 35.8 °F 32.0 °F 70% 30.24 in 8.0 mi South 8.1 mph - 0.00 in   Clear
10:35 PM 39.2 °F 35.0 °F 32.0 °F 75% 30.24 in 10.0 mi South 5.8 mph - 0.00 in   Clear
10:55 PM 42.8 °F 39.3 °F 32.0 °F 66% 30.24 in 10.0 mi SSE 5.8 mph - 0.00 in   Clear
11:15 PM 42.8 °F 41.1 °F 32.0 °F 66% 30.24 in 10.0 mi SSE 3.5 mph - 0.00 in   Clear
11:35 PM 42.8 °F 39.3 °F 32.0 °F 66% 30.23 in 10.0 mi SSE 5.8 mph - 0.00 in   Clear
11:55 PM 39.2 °F 35.9 °F 32.0 °F 75% 30.22 in 10.0 mi South 4.6 mph - 0.00 in   Clear